This demonstration page uses our WeatherBlox Daily Observations layout. Learn more.

Left ArrowRight Arrow

39.29038, -76.61219

Hourly Observations for July 2, 2022

Temp ( °F °C ) Dew Point ( °F °C ) Humidity (%) Winds ( mph kmh ) Pressure ( in mb ) Visibility ( mi km ) Precip ( " mm )
12:54 am 00:54 Partly Cloudy 79 26.1 71 21.7 77 77 S 5 7 29.94 1014 10 16 0.00 0.00
1:54 am 01:54 Mostly Cloudy 79 26.1 71 21.7 77 77 SSW 6 9 29.93 1014 10 16 0.00 0.00
2:54 am 02:54 Mostly Cloudy 79 26.1 70 21.1 74 74 SW 6 9 29.93 1013 10 16 0.00 0.00
3:54 am 03:54 Mostly Cloudy 80 26.7 70 21.1 71 71 SW 6 9 29.91 1013 10 16 0.00 0.00
4:54 am 04:54 Mostly Cloudy 79 26.1 70 21.1 74 74 SSW 5 7 29.92 1013 10 16 0.00 0.00
5:54 am 05:54 Mostly Cloudy 79 26.1 70 21.1 74 74 SW 6 9 29.93 1014 10 16 0.00 0.00
6:54 am 06:54 Mostly Cloudy 78 25.6 70 21.1 76 76 SW 8 13 29.94 1014 10 16 0.00 0.00
7:54 am 07:54 Mostly Cloudy 79 26.1 70 21.1 74 74 SW 7 11 29.95 1014 10 16 0.00 0.00
8:54 am 08:54 Mostly Cloudy 81 27.2 69 20.6 67 67 SW 8 13 29.95 1014 10 16 0.00 0.00
9:54 am 09:54 Mostly Cloudy 84 28.9 70 21.1 63 63 WSW 9 15 29.94 1014 10 16 0.00 0.00
10:54 am 10:54 Mostly Cloudy 89 31.7 71 21.7 55 55 VRB 6 9 29.94 1014 10 16 0.00 0.00
11:54 am 11:54 Mostly Cloudy 90 32.2 69 20.6 50 50 SW 6 9 29.94 1014 10 16 0.00 0.00
12:54 pm 12:54 Mostly Cloudy 92 33.3 71 21.7 51 51 SSW 8 13 29.93 1014 10 16 0.00 0.00
1:54 pm 13:54 Mostly Cloudy 92 33.3 69 20.6 47 47 VRB 5 7 29.93 1013 10 16 0.00 0.00
2:54 pm 14:54 Mostly Cloudy 92 33.3 69 20.6 47 47 SW 8 13 29.91 1013 10 16 0.00 0.00
3:54 pm 15:54 Mostly Cloudy 91 32.8 70 21.1 50 50 VRB 7 11 29.91 1013 10 16 0.00 0.00
4:54 pm 16:54 Mostly Cloudy 90 32.2 72 22.2 56 56 SW 9 15 29.90 1012 10 16 0.00 0.00
5:27 pm 17:27 Mostly Cloudy with Heavy Rain 85 29.4 74 23.3 70 70 Calm 29.89 1012 2 3 0.00 0.00
5:32 pm 17:32 Mostly Cloudy with Strong Thunderstorms 83 28.3 75 23.9 77 77 NNE 3 6 29.89 1012 1 2 0.05 1.27
5:38 pm 17:38 Mostly Cloudy with Thunderstorms 83 28.3 76 24.4 79 79 NE 6 9 29.89 1012 8 13 0.11 2.79
5:54 pm 17:54 Mostly Cloudy 85 29.4 76 24.4 75 75 Calm 29.89 1012 9 14 0.11 2.79
6:54 pm 18:54 Mostly Cloudy 86 30 75 23.9 70 70 S 5 7 29.90 1012 10 16 0.00 0.00
7:54 pm 19:54 Mostly Cloudy 84 28.9 74 23.3 72 72 SSE 7 11 29.90 1012 10 16 0.00 0.00
8:04 pm 20:04 Mostly Cloudy with Thunderstorms 85 29.4 73 22.8 68 68 SSE 6 9 29.89 1012 10 16 0.00 0.00
8:47 pm 20:47 Mostly Cloudy with Thunderstorms 77 25 70 21.1 79 79 WNW 10 17 29.92 1013 10 16 0.00 0.00
8:54 pm 20:54 Mostly Cloudy with Thunderstorms 76 24.4 70 21.1 82 82 WNW 9 15 29.92 1013 10 16 0.00 0.00
9:22 pm 21:22 Mostly Cloudy 76 24.4 72 22.2 88 88 SW 9 15 29.95 1014 10 16 0.00 0.00
9:54 pm 21:54 Mostly Cloudy with Light Rain 75 23.9 70 21.1 84 84 SSE 3 6 29.97 1015 10 16 0.01 0.25
10:54 pm 22:54 Mostly Cloudy 74 23.3 71 21.7 91 91 Calm 29.95 1014 10 16 0.00 0.00
11:54 pm 23:54 Mostly Cloudy 75 23.9 70 21.1 84 84 Calm 29.95 1014 10 16 0.00 0.00

Powered by AerisWeather